N7NMS-13 Weather Reports


time (UTC)temp
C
wind
direction
speed
KPH
gust
KPH
rain 1hr
cm
rain 24hr
cm
rain mn
cm
humidity
%
barometer
mb
20260504050412 6 174 0.0 0.0 0.00 0.00 0.00 76
20260504045412 6 174 0.0 0.0 0.00 0.00 0.00 76
20260504044342 6 174 0.0 0.0 0.00 0.00 0.00 76
20260504043342 6 174 0.0 0.0 0.00 0.00 0.00 75
20260504042312 6 174 0.0 0.0 0.00 0.00 0.00 74
20260504041312 6 174 0.0 0.0 0.00 0.00 0.00 74
20260504040312 6 174 0.0 0.0 0.00 0.00 0.00 73
20260504035312 6 174 0.0 0.0 0.00 0.00 0.00 73
20260504034242 6 174 0.0 0.0 0.00 0.00 0.00 72
20260504033242 7 174 0.0 0.0 0.00 0.00 0.00 70
20260504032242 7 174 0.0 0.0 0.00 0.00 0.00 68
20260504031242 7 174 0.0 0.0 0.00 0.00 0.00 68
20260504030212 7 174 0.0 0.0 0.00 0.00 0.00 67
20260504025142 8 174 0.0 0.0 0.00 0.00 0.00 64
20260504024142 7 174 0.0 0.0 0.00 0.00 0.00 64
20260504023112 8 174 0.0 0.0 0.00 0.00 0.00 63
20260504022042 8 174 0.0 0.0 0.00 0.00 0.00 62
20260504021012 9 174 0.0 0.0 0.00 0.00 0.00 60
20260504020012 9 174 0.0 0.0 0.00 0.00 0.00 58
20260504015012 10 174 0.0 0.0 0.00 0.00 0.00 58
20260504013942 10 174 0.0 0.0 0.00 0.00 0.00 57
20260504012942 10 174 0.0 0.0 0.00 0.00 0.00 55
20260504011912 10 174 0.0 0.0 0.00 0.00 0.00 51
20260504010912 11 174 0.0 0.0 0.00 0.00 0.00 51
20260504005842 10 174 0.0 0.0 0.00 0.00 0.00 50
20260504004812 10 174 0.0 0.0 0.00 0.00 0.00 52
20260504003742 11 174 0.0 0.0 0.00 0.00 0.00 52
20260504002712 12 174 0.0 0.0 0.00 0.00 0.00 46
20260504001642 12 174 0.0 0.0 0.00 0.00 0.00 45
20260504000612 12 174 0.0 0.0 0.00 0.00 0.00 44
20260503235612 12 166 0.0 0.0 0.00 0.00 0.00 43
20260503234542 12 200 1.6 0.0 0.00 0.00 0.00 42
20260503233512 13 181 0.0 0.0 0.00 0.00 0.00 42
20260503232512 13 200 3.2 0.0 0.00 0.00 0.00 40
20260503231512 13 188 8.0 0.0 0.00 0.00 0.00 40
20260503230512 13 153 4.8 0.0 0.00 0.00 0.00 39
20260503225512 15 252 1.6 0.0 0.00 0.00 0.00 40
20260503224442 14 124 0.0 0.0 0.00 0.00 0.00 38
20260503223412 13 136 3.2 0.0 0.00 0.00 0.00 38
20260503222412 15 215 3.2 0.0 0.00 0.00 0.00 37
20260503221412 15 193 3.2 0.0 0.00 0.00 0.00 38
20260503220412 15 179 3.2 0.0 0.00 0.00 0.00 36
20260503215412 14 183 1.6 0.0 0.00 0.00 0.00 36
20260503214342 15 122 1.6 0.0 0.00 0.00 0.00 38
20260503213342 15 115 0.0 0.0 0.00 0.00 0.00 39
20260503212312 14 194 1.6 0.0 0.00 0.00 0.00 40
20260503211312 14 188 9.7 0.0 0.00 0.00 0.00 39
20260503210312 13 208 12.9 0.0 0.00 0.00 0.00 38
20260503205312 14 186 4.8 0.0 0.00 0.00 0.00 37
20260503204242 14 200 4.8 0.0 0.00 0.00 0.00 38
20260503203242 14 274 0.0 0.0 0.00 0.00 0.00 38
20260503202242 13 200 4.8 0.0 0.00 0.00 0.00 39
20260503201212 14 255 3.2 0.0 0.00 0.00 0.00 38
20260503200212 14 174 4.8 0.0 0.00 0.00 0.00 39
20260503195142 13 177 4.8 0.0 0.00 0.00 0.00 39
20260503194142 14 169 9.7 0.0 0.00 0.00 0.00 41
20260503193142 13 232 8.0 0.0 0.00 0.00 0.00 40
20260503192143 13 236 4.8 0.0 0.00 0.00 0.00 39
20260503191112 13 217 6.4 0.0 0.00 0.00 0.00 42
20260503190113 13 197 6.4 0.0 0.00 0.00 0.00 40
20260503185112 13 245 3.2 0.0 0.00 0.00 0.00 41
20260503184043 13 193 3.2 0.0 0.00 0.00 0.00 43
20260503183043 12 194 3.2 0.0 0.00 0.00 0.00 43
20260503182043 12 202 6.4 0.0 0.00 0.00 0.00 42
20260503181043 12 197 9.7 0.0 0.00 0.00 0.00 41
20260503180013 13 176 4.8 0.0 0.00 0.00 0.00 44
20260503175013 12 207 6.4 0.0 0.00 0.00 0.00 42
20260503173943 12 207 8.0 0.0 0.00 0.00 0.00 46
20260503172943 12 107 0.0 0.0 0.00 0.00 0.00 47
20260503171943 12 204 6.4 0.0 0.00 0.00 0.00 43
20260503170943 11 263 4.8 0.0 0.00 0.00 0.00 45
20260503150843 8 187 3.2 0.0 0.00 0.00 0.00 54
20260503130713 6 201 3.2 0.0 0.00 0.00 0.00 68
20260503110643 2 214 0.0 0.0 0.00 0.00 0.00 89
20260503090513 3 195 1.6 0.0 0.00 0.00 0.00 83
20260503081443 3 163 0.0 0.0 0.00 0.00 0.00 85
20260503080413 3 170 0.0 0.0 0.00 0.00 0.00 85
20260503072343 3 153 0.0 0.0 0.00 0.00 0.00 87
20260503071343 3 173 0.0 0.0 0.00 0.00 0.00 87